![]() |
EMODnet Physics ERDDAP
Easier access to scientific data |
log in|
Brought to you by EMODnet Physics |
| Dataset Title: | NDBC - Collection of dew point temperature (DEWT) TimeSeries - IN SITU MultiPointTimeSeriesObservation
|
| Institution: | NDBC (Dataset ID: TS_DEWT_NDBC) |
| Information: | Summary
| License
| FGDC
| ISO 19115
| Metadata
| Background
| Subset
| Data Access Form
| Make a graph
|
| Name | Last modified | Size | Description | |
|---|---|---|---|---|
| Parent Directory | - | - | ||
| 45003_TS_DEWT_041983.nc | 26-Dec-2024 22:43 | 451422 | ||
| 45003_TS_DEWT_041984.nc | 26-Dec-2024 22:45 | 450243 | ||
| 45003_TS_DEWT_042023.nc | 19-Jan-2026 03:33 | 429829 | ||
| 45003_TS_DEWT_042024.nc | 19-Jan-2026 03:38 | 429836 | ||
| 45003_TS_DEWT_051983.nc | 26-Dec-2024 22:44 | 429832 | ||
| 45003_TS_DEWT_051984.nc | 26-Dec-2024 22:45 | 429832 | ||
| 45003_TS_DEWT_052024.nc | 19-Jan-2026 03:39 | 449890 | ||
| 45003_TS_DEWT_052025.nc | 19-Jan-2026 03:45 | 451471 | ||
| 45003_TS_DEWT_061984.nc | 26-Dec-2024 22:45 | 429832 | ||
| 45003_TS_DEWT_062021.nc | 19-Jan-2026 03:21 | 429834 | ||
| 45003_TS_DEWT_062022.nc | 19-Jan-2026 03:27 | 429827 | ||
| 45003_TS_DEWT_062024.nc | 19-Jan-2026 03:40 | 424571 | ||
| 45003_TS_DEWT_062025.nc | 19-Jan-2026 03:45 | 429834 | ||
| 45003_TS_DEWT_071984.nc | 26-Dec-2024 22:45 | 429830 | ||
| 45003_TS_DEWT_072020.nc | 19-Jan-2026 03:16 | 429836 | ||
| 45003_TS_DEWT_072021.nc | 19-Jan-2026 03:22 | 429599 | ||
| 45003_TS_DEWT_072023.nc | 19-Jan-2026 03:34 | 426528 | ||
| 45003_TS_DEWT_072024.nc | 19-Jan-2026 03:41 | 429574 | ||
| 45003_TS_DEWT_072025.nc | 19-Jan-2026 03:46 | 429613 | ||
| 45003_TS_DEWT_081984.nc | 26-Dec-2024 22:46 | 429614 | ||
| 45003_TS_DEWT_082020.nc | 19-Jan-2026 03:17 | 429610 | ||
| 45003_TS_DEWT_082021.nc | 19-Jan-2026 03:23 | 429601 | ||
| 45003_TS_DEWT_082023.nc | 19-Jan-2026 03:35 | 429618 | ||
| 45003_TS_DEWT_082024.nc | 19-Jan-2026 03:41 | 429607 | ||
| 45003_TS_DEWT_082025.nc | 19-Jan-2026 03:47 | 429608 | ||
| 45003_TS_DEWT_091984.nc | 26-Dec-2024 22:46 | 429615 | ||
| 45003_TS_DEWT_092020.nc | 19-Jan-2026 03:18 | 451282 | ||
| 45003_TS_DEWT_092021.nc | 19-Jan-2026 03:24 | 429608 | ||
| 45003_TS_DEWT_092023.nc | 19-Jan-2026 03:36 | 429619 | ||
| 45003_TS_DEWT_092024.nc | 19-Jan-2026 03:42 | 429613 | ||
| 45003_TS_DEWT_092025.nc | 19-Jan-2026 03:47 | 429610 | ||
| 45003_TS_DEWT_101984.nc | 26-Dec-2024 22:46 | 449495 | ||
| 45003_TS_DEWT_102020.nc | 19-Jan-2026 03:19 | 451767 | ||
| 45003_TS_DEWT_102021.nc | 19-Jan-2026 03:24 | 449984 | ||
| 45003_TS_DEWT_102023.nc | 19-Jan-2026 03:37 | 449510 | ||
| 45003_TS_DEWT_102024.nc | 19-Jan-2026 03:43 | 450477 | ||
| 45003_TS_DEWT_102025.nc | 19-Jan-2026 03:48 | 450299 | ||
| 45003_TS_DEWT_111984.nc | 26-Dec-2024 22:46 | 438467 | ||
| 45003_TS_DEWT_112020.nc | 19-Jan-2026 03:19 | 449826 | ||
| 45003_TS_DEWT_112021.nc | 19-Jan-2026 03:25 | 450224 | ||
| 45003_TS_DEWT_112023.nc | 19-Jan-2026 03:38 | 429727 | ||
| 45003_TS_DEWT_112024.nc | 19-Jan-2026 03:43 | 429831 | ||
| 45003_TS_DEWT_112025.nc | 19-Jan-2026 03:48 | 429827 | ||
| 45003_TS_DEWT_122020.nc | 19-Jan-2026 03:20 | 429835 | ||
| 45003_TS_DEWT_122021.nc | 19-Jan-2026 03:26 | 450067 | ||
| 45003_TS_DEWT_122024.nc | 19-Jan-2026 03:44 | 449731 | ||